Location: Grange Rosano
(44.4500°N, 6.9667°E)
Time: 08:33:00
(UTC+00:00)

Cosmos 1461 - Pass Details

Date: 26 May 2022
Orbit: 516 x 638 km, 65.0° (Epoch: 01 July)

Event Time Altitude Azimuth Distance (km) Brightness Sun altitude
Rises 00:02:54 0° 322° (NW) 2,740 7.0 -24.0°
Reaches altitude 10° 00:05:06 10° 318° (NW) 1,861 6.0 -23.9°
Enters shadow 00:08:19 46° 287° (WNW) 775 3.5 -23.9°
